Zurück zum Katalog

TITAN 3C TRANSTAGE DEB

LostHEO
NORAD 34168·DEBRIS·🇺🇸 United States

Gestartet Dec 21, 1965 von Cape Canaveral Space Force Station

Loading…

Nächste Überflüge (nächste 24 Stunden)

TLE

VeraltetSource: Space-Track

Epoche: Aug 16, 2025, 06:03 UTC

1 34168U 65108DB  25228.25264567 -.00000002  00000-0  00000-0 0  9991
2 34168  27.9156  63.1025 6642245 177.9141 358.2219  2.63602604190975

Verfolge TITAN 3C TRANSTAGE DEB in Echtzeit mit AllMySat

Download on the App Store